Home   Weather   Morden   Past weeks

Flag for Canada Past Weather in Morden, Manitoba, Canada — Yesterday and Last 2 Weeks

Now
66 °F

Mild.


Feels Like: 66 °F
Forecast: N/A
Wind: 8 mph from Southeast

Location: Morden CDA CS

Current Time: Sep 24, 2016 at 4:03:18 PM

Latest Report: Sep 24, 2016 at 3:00 PM


Visibility: N/A

Pressure: 29.79 "Hg

Humidity: 96%

Dew Point: 65 °F

Location of MordenLocation

Past Weather in Morden — Graph

°F

Morden Temperature Yesterday

Maximum temperature yesterday: 64 °F (at 3:00 PM)
Minimum temperature yesterday: 43 °F (at 4:00 AM)
Average temperature yesterday: 54 °F

High & Low Weather Summary for the Past Weeks

 TemperatureHumidityPressure
High80 °F (Sep 11, 3:00 PM)98% (Sep 16, 6:00 AM)30.30 "Hg (Sep 16, 6:00 AM)
Low38 °F (Sep 14, 12:00 AM)27% (Sep 11, 3:00 PM)29.47 "Hg (Sep 18, 3:00 PM)
Average58 °F67%29.97 "Hg
* Reported Sep 9 3:00 PM — Sep 24 3:00 PM, Morden, Weather by CustomWeather, © 2016

Note: Actual official high and low records may vary slightly from our data, if they occured in-between our weather recording intervals... More about our weather records

Advertising

Morden Weather History for the Previous 24 Hours

Scroll right to see more
 ConditionsComfort  
Time TempWeatherWind HumidityBarometerVisibility
3:00 PM
Sat, Sep 24
66 °FMild.8 mph96%29.79 "HgN/A
2:00 PM65 °FMild.9 mph97%29.83 "HgN/A
1:00 PM64 °FMild.10 mph96%29.84 "HgN/A
12:00 PM63 °FMild.9 mph98%29.85 "HgN/A
11:00 AM60 °FCool.6 mph98%29.87 "HgN/A
10:00 AM59 °FCool.6 mph98%29.87 "HgN/A
9:00 AM57 °FCool.8 mph98%29.88 "HgN/A
8:00 AM57 °FCool.13 mph97%29.88 "HgN/A
7:00 AM60 °FCool.10 mph97%29.88 "HgN/A
6:00 AM57 °FCool.8 mph97%29.89 "HgN/A
5:00 AM56 °FCool.9 mph97%29.90 "HgN/A
4:00 AM56 °FCool.9 mph97%29.94 "HgN/A
3:00 AM56 °FCool.15 mph96%29.94 "HgN/A
2:00 AM56 °FCool.13 mph96%29.96 "HgN/A
1:00 AM56 °FCool.12 mph92%29.98 "HgN/A
12:00 AM57 °FCool.12 mph84%29.98 "HgN/A
11:00 PM
Fri, Sep 23
58 °FCool.12 mph75%29.98 "HgN/A
10:00 PM58 °FCool.10 mph73%30.00 "HgN/A
9:00 PM61 °FRefreshingly cool.16 mph59%30.01 "HgN/A
8:00 PM62 °FRefreshingly cool.13 mph52%30.02 "HgN/A
7:00 PM62 °FRefreshingly cool.8 mph59%30.03 "HgN/A
6:00 PM63 °FMild.13 mph56%30.04 "HgN/A
5:00 PM63 °FMild.12 mph57%30.05 "HgN/A
4:00 PM63 °FMild.14 mph56%30.07 "HgN/A
Weather by CustomWeather, © 2016

See weather overviewHow to use our weather pages